FW5443 Weather Reports


time (UTC)temp
C
wind
direction
speed
KPH
gust
KPH
rain 1hr
cm
rain 24hr
cm
rain mn
cm
humidity
%
barometer
mb
20260508005531 12 231 0.0 3.2 0.00 0.03 0.03 44 1007.6
20260508005029 12 0 0.0 3.2 0.00 0.03 0.03 43 1007.5
20260508004551 12 320 0.0 4.8 0.00 0.03 0.03 42 1007.3
20260508004028 12 0 0.0 4.8 0.00 0.03 0.03 43 1007.3
20260508003529 12 26 0.0 3.2 0.00 0.03 0.03 43 1007.2
20260508003043 13 0 0.0 8.0 0.00 0.03 0.03 42 1007.3
20260508002530 13 63 0.0 8.0 0.00 0.03 0.03 41 1007.0
20260508002030 13 290 0.0 6.4 0.00 0.03 0.03 40 1006.9
20260508001546 13 0 0.0 6.4 0.00 0.03 0.03 40 1006.9
20260508001028 13 74 1.6 9.7 0.00 0.03 0.03 40 1006.8
20260508000530 13 0 0.0 9.7 0.00 0.03 0.03 40 1006.8
20260508000042 13 0 0.0 3.2 0.00 0.03 0.03 40 1006.8
20260507235531 13 155 0.0 8.0 0.00 0.03 0.03 41 1006.8
20260507235028 13 100 0.0 8.0 0.00 0.03 0.03 39 1006.7
20260507234538 14 28 0.0 8.0 0.00 0.03 0.03 38 1006.6
20260507234029 14 0 0.0 8.0 0.00 0.03 0.03 38 1006.6
20260507233529 14 0 1.6 8.0 0.00 0.03 0.03 39 1006.5
20260507233046 14 0 0.0 6.4 0.00 0.03 0.03 38 1006.5
20260507232528 14 79 0.0 6.4 0.00 0.03 0.03 37 1006.4
20260507232028 14 146 1.6 6.4 0.00 0.03 0.03 36 1006.4
20260507231545 15 153 1.6 6.4 0.00 0.03 0.03 37 1006.4
20260507231029 15 67 0.0 3.2 0.00 0.03 0.03 38 1006.4
20260507230529 15 0 0.0 6.4 0.00 0.03 0.03 37 1006.4
20260507230055 15 0 0.0 8.0 0.00 0.03 0.03 37 1006.2
20260507225529 15 330 1.6 8.0 0.00 0.03 0.03 36 1006.2
20260507225031 15 73 1.6 8.0 0.00 0.03 0.03 36 1006.2
20260507224542 15 101 1.6 8.0 0.00 0.03 0.03 36 1006.2
20260507224029 15 0 1.6 6.4 0.00 0.03 0.03 36 1006.1
20260507223528 15 254 0.0 8.0 0.00 0.03 0.03 36 1006.1
20260507223046 15 108 3.2 8.0 0.00 0.03 0.03 34 1006.0
20260507222530 15 78 1.6 6.4 0.00 0.03 0.03 36 1005.9
20260507222029 16 254 1.6 12.9 0.00 0.03 0.03 35 1005.9
20260507221545 16 69 1.6 12.9 0.00 0.03 0.03 34 1005.9
20260507221032 16 226 1.6 6.4 0.00 0.03 0.03 35 1005.8
20260507220533 16 0 0.0 16.1 0.00 0.03 0.03 36 1005.9
20260507220045 16 0 1.6 16.1 0.00 0.03 0.03 34 1005.8
20260507215530 16 51 1.6 9.7 0.00 0.03 0.03 35 1005.8
20260507215032 16 53 1.6 9.7 0.00 0.03 0.03 33 1005.7
20260507214548 16 74 1.6 9.7 0.00 0.03 0.03 35 1005.7
20260507214029 16 0 1.6 9.7 0.00 0.03 0.03 34 1005.6
20260507213529 16 272 1.6 9.7 0.00 0.03 0.03 33 1005.7
20260507213107 16 17 1.6 9.7 0.00 0.03 0.03 33 1005.6
20260507212529 16 60 3.2 9.7 0.00 0.03 0.03 33 1005.6
20260507212029 17 13 1.6 11.3 0.00 0.03 0.03 35 1005.4
20260507211546 17 52 3.2 11.3 0.00 0.03 0.03 34 1005.6
20260507211028 17 61 1.6 9.7 0.00 0.03 0.03 35 1005.4
20260507210533 17 140 3.2 11.3 0.00 0.03 0.03 34 1005.4
20260507210056 17 45 1.6 11.3 0.00 0.03 0.03 35 1005.5
20260507205529 17 76 3.2 9.7 0.00 0.03 0.03 35 1005.4
20260507205028 17 65 1.6 6.4 0.00 0.03 0.03 34 1005.4
20260507204542 17 243 1.6 9.7 0.00 0.03 0.03 35 1005.3
20260507204028 17 74 0.0 9.7 0.00 0.03 0.03 37 1005.5
20260507203532 17 81 1.6 9.7 0.00 0.03 0.03 34 1005.5
20260507203108 17 170 3.2 9.7 0.00 0.03 0.03 33 1005.5
20260507202535 17 13 3.2 6.4 0.00 0.03 0.03 34 1005.6
20260507202029 17 103 1.6 11.3 0.00 0.03 0.03 32 1005.5
20260507201545 17 232 1.6 11.3 0.00 0.03 0.03 33 1005.4
20260507201029 17 352 3.2 11.3 0.00 0.03 0.03 34 1005.5
20260507200531 17 60 3.2 11.3 0.00 0.03 0.03 33 1005.4
20260507200047 17 126 1.6 8.0 0.00 0.03 0.03 34 1005.6
20260507195536 17 40 1.6 8.0 0.00 0.03 0.03 32 1005.5
20260507195031 17 37 1.6 12.9 0.00 0.03 0.03 34 1005.6
20260507194548 17 227 1.6 12.9 0.00 0.03 0.03 31 1005.8
20260507194029 17 238 3.2 9.7 0.00 0.03 0.03 31 1005.7
20260507193529 17 349 1.6 16.1 0.00 0.03 0.03 32 1005.7
20260507193042 17 38 3.2 20.9 0.00 0.03 0.03 33 1005.7
20260507192529 17 175 3.2 20.9 0.00 0.03 0.03 31 1005.8
20260507192029 17 192 1.6 9.7 0.00 0.03 0.03 34 1005.8
20260507191549 17 53 1.6 9.7 0.00 0.03 0.03 31 1005.8
20260507191030 17 103 1.6 9.7 0.00 0.03 0.03 33 1005.9
20260507190529 17 207 1.6 8.0 0.00 0.03 0.03 33 1005.9
20260507190055 17 5 3.2 6.4 0.00 0.03 0.03 32 1005.9
20260507185529 18 0 1.6 6.4 0.00 0.03 0.03 35 1005.8
20260507185030 18 329 1.6 8.0 0.00 0.03 0.03 36 1006.0
20260507184544 17 42 1.6 8.0 0.00 0.03 0.03 34 1006.0
20260507184029 17 311 1.6 11.3 0.00 0.03 0.03 34 1006.1
20260507183528 17 0 3.2 16.1 0.00 0.03 0.03 33 1006.0
20260507183047 17 65 3.2 16.1 0.00 0.03 0.03 33 1006.0
20260507182531 17 238 1.6 6.4 0.00 0.03 0.03 34 1006.1
20260507182028 17 236 1.6 8.0 0.00 0.03 0.03 36 1006.2
20260507181543 17 46 3.2 8.0 0.00 0.03 0.03 38 1006.2
20260507181029 17 27 1.6 11.3 0.00 0.03 0.03 41 1006.3
20260507180528 17 64 3.2 11.3 0.00 0.03 0.03 34 1006.2
20260507180048 17 67 1.6 12.9 0.00 0.03 0.03 37 1006.5
20260507175536 17 170 3.2 12.9 0.00 0.03 0.03 35 1006.4
20260507175029 17 37 1.6 8.0 0.00 0.03 0.03 37 1006.5
20260507174547 17 261 1.6 11.3 0.00 0.03 0.03 39 1006.4
20260507174034 17 78 0.0 11.3 0.00 0.03 0.03 40 1006.3
20260507173532 17 169 3.2 11.3 0.00 0.03 0.03 40 1006.4
20260507173114 17 169 3.2 12.9 0.00 0.03 0.03 41 1006.4
20260507172529 17 360 3.2 12.9 0.00 0.03 0.03 39 1006.3
20260507172031 17 119 1.6 8.0 0.00 0.03 0.03 42 1006.5
20260507171543 17 94 3.2 8.0 0.00 0.03 0.03 43 1006.6
20260507171029 17 103 3.2 9.7 0.00 0.03 0.03 43 1006.5
20260507170529 17 65 1.6 11.3 0.00 0.03 0.03 44 1006.6
20260507170042 17 210 3.2 11.3 0.00 0.03 0.03 47 1006.7
20260507165530 16 108 1.6 9.7 0.00 0.03 0.03 49 1006.8
20260507165028 16 128 1.6 8.0 0.00 0.03 0.03 50 1006.8
20260507164541 17 72 3.2 8.0 0.00 0.03 0.03 47 1006.8
20260507164029 17 72 1.6 8.0 0.00 0.03 0.03 47 1006.8
20260507163531 16 62 1.6 8.0 0.00 0.03 0.03 49 1007.0
20260507163044 16 170 1.6 6.4 0.00 0.03 0.03 54 1006.9
20260507162535 16 115 0.0 14.5 0.00 0.03 0.03 54 1007.1
20260507162029 16 292 3.2 14.5 0.00 0.03 0.03 52 1007.2
20260507161549 16 163 1.6 9.7 0.00 0.03 0.03 54 1007.2
20260507161029 16 157 1.6 9.7 0.00 0.03 0.03 52 1007.1
20260507160529 16 0 1.6 8.0 0.00 0.03 0.03 53 1007.2
20260507160059 16 0 1.6 8.0 0.00 0.03 0.03 50 1007.2
20260507155532 16 36 0.0 6.4 0.00 0.03 0.03 59 1007.3
20260507155029 15 13 1.6 4.8 0.00 0.03 0.03 56 1007.4
20260507154550 16 49 1.6 4.8 0.00 0.03 0.03 56 1007.4
20260507154028 16 0 0.0 8.0 0.00 0.03 0.03 55 1007.4
20260507153532 17 64 1.6 11.3 0.00 0.03 0.03 53 1007.4
20260507153053 16 61 1.6 11.3 0.00 0.03 0.03 54 1007.4
20260507152528 16 54 0.0 9.7 0.00 0.03 0.03 53 1007.4
20260507152032 16 68 1.6 9.7 0.00 0.03 0.03 55 1007.6
20260507151544 16 349 1.6 4.8 0.00 0.03 0.03 55 1007.6
20260507151029 16 101 0.0 6.4 0.00 0.03 0.03 55 1007.6
20260507150529 16 150 1.6 6.4 0.00 0.03 0.03 53 1007.7
20260507150048 17 10 0.0 6.4 0.00 0.03 0.03 51 1007.6
20260507145529 17 350 1.6 6.4 0.00 0.03 0.03 53 1007.7
20260507145029 17 0 0.0 6.4 0.00 0.03 0.03 56 1007.8
20260507144541 16 141 0.0 8.0 0.00 0.03 0.03 55 1007.9
20260507144029 17 64 1.6 8.0 0.00 0.03 0.03 51 1008.1
20260507143530 17 49 1.6 6.4 0.00 0.03 0.03 51 1007.9
20260507143054 17 59 1.6 8.0 0.00 0.03 0.03 51 1007.9
20260507142529 17 78 1.6 8.0 0.00 0.03 0.03 52 1007.9
20260507142031 17 55 1.6 8.0 0.00 0.03 0.03 51 1008.1
20260507141550 16 200 1.6 8.0 0.00 0.03 0.03 50 1008.0
20260507141029 16 93 1.6 8.0 0.00 0.03 0.03 51 1008.0
20260507140532 16 290 1.6 8.0 0.00 0.03 0.03 53 1007.8
20260507140046 16 344 1.6 4.8 0.00 0.03 0.03 52 1008.0
20260507135531 16 46 1.6 6.4 0.00 0.03 0.03 50 1007.9
20260507135033 16 187 1.6 6.4 0.00 0.03 0.03 56 1007.8
20260507134546 16 98 1.6 4.8 0.00 0.03 0.03 52 1007.8
20260507134029 15 0 0.0 6.4 0.00 0.03 0.03 55 1007.8
20260507133529 15 0 0.0 6.4 0.00 0.03 0.03 58 1007.9
20260507133109 15 313 0.0 6.4 0.00 0.03 0.03 58 1008.0
20260507132534 14 45 1.6 8.0 0.00 0.03 0.03 59 1008.1
20260507132028 14 0 1.6 8.0 0.00 0.03 0.03 60 1008.1
20260507131545 13 59 0.0 4.8 0.00 0.03 0.03 62 1008.1
20260507131029 13 0 1.6 4.8 0.00 0.03 0.03 62 1008.1
20260507130532 13 143 0.0 11.3 0.00 0.03 0.03 64 1008.1
20260507130053 13 44 1.6 11.3 0.00 0.03 0.03 66 1008.2
20260507125529 12 0 1.6 9.7 0.00 0.03 0.03 67 1008.3
20260507125031 12 267 1.6 9.7 0.00 0.03 0.03 72 1008.3
20260507124550 12 352 1.6 8.0 0.00 0.03 0.03 75 1008.4
20260507124029 11 181 1.6 8.0 0.00 0.03 0.03 78 1008.3
20260507123536 11 0 1.6 4.8 0.00 0.03 0.03 80 1008.3
20260507123049 10 257 0.0 4.8 0.00 0.03 0.03 81 1008.3
20260507122529 10 0 1.6 4.8 0.00 0.03 0.03 82 1008.1
20260507122029 10 0 0.0 4.8 0.00 0.03 0.03 84 1008.4
20260507121544 10 0 0.0 6.4 0.00 0.03 0.03 86 1008.4
20260507121029 9 352 0.0 8.0 0.00 0.03 0.03 87 1008.3
20260507120547 9 49 1.6 8.0 0.00 0.03 0.03 88 1008.1
20260507120041 9 0 0.0 4.8 0.00 0.03 0.03 89 1008.2
20260507115529 9 0 0.0 4.8 0.00 0.03 0.03 89 1008.3
20260507115028 9 252 0.0 4.8 0.00 0.03 0.03 90 1008.3
20260507114555 8 331 0.0 3.2 0.00 0.03 0.03 90 1008.2
20260507114029 8 0 0.0 3.2 0.00 0.03 0.03 90 1008.1
20260507113529 9 0 0.0 3.2 0.00 0.03 0.03 90 1008.2
20260507113047 9 0 0.0 3.2 0.00 0.03 0.03 90 1008.2
20260507112529 9 0 0.0 3.2 0.00 0.03 0.03 90 1008.2
20260507112032 9 0 0.0 3.2 0.00 0.03 0.03 90 1008.3
20260507111546 9 0 0.0 3.2 0.03 0.03 0.03 90 1008.2
20260507111029 9 0 0.0 3.2 0.03 0.03 0.03 90 1008.1
20260507110529 9 0 0.0 1.6 0.03 0.03 0.03 90 1007.9
20260507110046 9 0 0.0 1.6 0.03 0.03 0.03 90 1008.2
20260507105529 9 0 0.0 1.6 0.03 0.03 0.03 90 1008.3
20260507105029 8 0 0.0 1.6 0.03 0.03 0.03 90 1008.5
20260507104541 8 0 0.0 1.6 0.03 0.03 0.03 90 1008.5
20260507104030 8 0 0.0 1.6 0.03 0.03 0.03 89 1008.4
20260507103532 8 0 0.0 1.6 0.03 0.03 0.03 89 1008.2
20260507103048 8 0 0.0 1.6 0.03 0.03 0.03 89 1007.8
20260507102529 8 0 0.0 1.6 0.03 0.03 0.03 89 1007.8
20260507102029 8 0 0.0 4.8 0.03 0.03 0.03 89 1007.5
20260507101549 8 0 0.0 4.8 0.00 0.00 0.00 89 1007.6
20260507101029 9 0 0.0 1.6 0.00 0.00 0.00 89 1007.7
20260507100529 9 0 0.0 1.6 0.00 0.00 0.00 88 1007.8
20260507100050 9 0 0.0 4.8 0.00 0.00 0.00 88 1007.5
20260507095532 9 0 0.0 4.8 0.00 0.00 0.00 88 1007.4
20260507095029 9 213 0.0 4.8 0.00 0.00 0.00 88 1007.4
20260507094554 9 22 0.0 4.8 0.00 0.00 0.00 88 1007.4
20260507094028 9 63 0.0 3.2 0.00 0.00 0.00 88 1007.4
20260507093529 9 0 0.0 1.6 0.00 0.00 0.00 88 1007.7
20260507093041 9 0 0.0 3.2 0.00 0.00 0.00 87 1007.8
20260507092528 10 0 0.0 8.0 0.00 0.00 0.00 87 1007.6
20260507092029 10 0 0.0 8.0 0.00 0.00 0.00 88 1007.5
20260507091540 10 0 0.0 3.2 0.00 0.00 0.00 88 1007.6
20260507091029 10 91 0.0 3.2 0.00 0.00 0.00 87 1007.8
20260507090531 10 0 0.0 3.2 0.00 0.00 0.00 87 1007.8
20260507090043 10 107 0.0 4.8 0.00 0.00 0.00 87 1007.9
20260507085529 10 0 0.0 4.8 0.00 0.00 0.00 87 1007.7
20260507085029 10 119 0.0 4.8 0.00 0.00 0.00 87 1007.6
20260507084544 10 50 0.0 4.8 0.00 0.00 0.00 88 1007.8
20260507084029 11 232 0.0 4.8 0.00 0.00 0.00 88 1007.7
20260507083529 11 0 0.0 1.6 0.00 0.00 0.00 88 1007.6
20260507083044 11 91 0.0 3.2 0.00 0.00 0.00 88 1007.5
20260507082528 11 0 0.0 3.2 0.00 0.00 0.00 87 1007.3
20260507082028 11 0 0.0 4.8 0.00 0.00 0.00 87 1007.1
20260507081542 11 0 0.0 4.8 0.00 0.00 0.00 87 1007.1
20260507081033 11 171 0.0 4.8 0.00 0.00 0.00 86 1007.1
20260507080529 11 0 0.0 4.8 0.00 0.00 0.00 86 1007.3
20260507080044 11 0 0.0 6.4 0.00 0.00 0.00 85 1007.5
20260507075529 11 0 0.0 6.4 0.00 0.00 0.00 85 1007.6
20260507075029 11 0 0.0 4.8 0.00 0.00 0.00 84 1007.4
20260507074547 11 0 0.0 4.8 0.00 0.00 0.00 84 1007.3
20260507074030 11 0 0.0 3.2 0.00 0.00 0.00 83 1007.6
20260507073529 11 0 0.0 3.2 0.00 0.00 0.00 83 1007.7
20260507073049 11 0 0.0 3.2 0.00 0.00 0.00 83 1007.3
20260507072529 11 0 0.0 3.2 0.00 0.00 0.00 83 1006.7
20260507072028 11 0 0.0 3.2 0.00 0.00 0.00 83 1006.6
20260507071543 11 0 0.0 3.2 0.00 0.00 0.00 83 1006.8
20260507071029 11 0 0.0 1.6 0.00 0.00 0.00 83 1006.8
20260507070530 11 0 0.0 1.6 0.00 0.00 0.00 83 1006.8
20260507070051 11 0 0.0 3.2 0.00 0.00 0.00 83 1007.0
20260507065533 11 0 0.0 4.8 0.00 0.00 0.00 83 1006.7
20260507065028 11 0 0.0 4.8 0.00 0.00 0.00 83 1006.7
20260507064546 11 150 0.0 6.4 0.00 0.00 0.00 84 1006.8
20260507064032 11 0 0.0 6.4 0.00 0.00 0.00 84 1006.8
20260507063530 11 360 1.6 6.4 0.00 0.00 0.00 84 1006.9
20260507063041 11 0 0.0 8.0 0.00 0.00 0.00 85 1006.7
20260507062529 12 15 0.0 8.0 0.00 0.00 0.00 85 1006.9
20260507062029 12 46 1.6 4.8 0.00 0.00 0.00 86 1006.7
20260507061544 12 35 0.0 6.4 0.00 0.00 0.00 88 1006.5
20260507061029 12 0 1.6 6.4 0.00 0.00 0.00 88 1006.6
20260507060529 12 0 0.0 6.4 0.00 0.00 0.00 88 1006.6
20260507060045 12 0 0.0 6.4 0.00 0.00 0.00 88 1006.6
20260507055526 12 360 0.0 3.2 0.00 0.00 0.00 88 1006.7
20260507055028 12 0 0.0 3.2 0.00 0.00 0.00 88 1006.8
20260507054541 12 0 0.0 4.8 0.00 0.00 0.00 88 1006.9
20260507054029 12 270 0.0 4.8 0.00 0.00 0.00 88 1006.9
20260507053530 12 306 0.0 6.4 0.00 0.00 0.00 89 1007.1
20260507053041 12 52 0.0 6.4 0.00 0.00 0.00 89 1007.0
20260507052525 12 0 0.0 6.4 0.00 0.00 0.00 89 1006.9
20260507052029 12 107 0.0 4.8 0.00 0.00 0.00 89 1006.9
20260507051542 12 0 0.0 4.8 0.00 0.00 0.00 89 1006.6
20260507051029 12 96 0.0 8.0 0.00 0.00 0.00 89 1006.7
20260507050529 12 0 0.0 8.0 0.00 0.00 0.00 89 1006.6
20260507050047 13 177 0.0 6.4 0.00 0.00 0.00 89 1006.8
20260507045530 13 57 1.6 4.8 0.00 0.00 0.00 89 1007.0
20260507045027 13 205 0.0 4.8 0.00 0.00 0.00 90 1007.0
20260507044556 13 0 0.0 4.8 0.00 0.00 0.00 89 1007.0
20260507044032 13 0 0.0 9.7 0.00 0.00 0.00 89 1006.8
20260507043528 14 45 1.6 9.7 0.00 0.00 0.00 90 1006.7
20260507043042 14 51 1.6 6.4 0.00 0.00 0.00 91 1006.6
20260507042526 15 69 0.0 6.4 0.00 0.00 0.00 92 1006.8
20260507042031 15 0 1.6 6.4 0.00 0.00 0.00 92 1006.8
20260507041545 15 96 0.0 4.8 0.00 0.00 0.00 92 1006.7
20260507041029 15 5 0.0 4.8 0.00 0.00 0.00 92 1006.7
20260507040528 15 15 0.0 3.2 0.00 0.00 0.00 92 1006.8
20260507040045 15 0 0.0 6.4 0.00 0.00 0.00 91 1006.9
20260507035531 15 0 0.0 6.4 0.00 0.00 0.00 91 1006.8
20260507035029 15 63 0.0 6.4 0.00 0.00 0.00 91 1006.7
20260507034546 15 187 1.6 6.4 0.00 0.00 0.00 91 1006.4
20260507034029 15 162 0.0 6.4 0.00 0.00 0.00 91 1006.6
20260507033529 15 0 1.6 12.9 0.00 0.00 0.00 91 1006.3
20260507033057 15 144 3.2 12.9 0.00 0.00 0.00 92 1006.7
20260507032530 15 0 0.0 8.0 0.00 0.00 0.00 92 1006.5
20260507032038 15 147 1.6 8.0 0.00 0.00 0.00 92 1006.3
20260507031554 15 0 1.6 8.0 0.00 0.00 0.00 92 1006.0
20260507031026 15 167 1.6 8.0 0.00 0.00 0.00 92 1005.9
20260507030530 15 175 1.6 8.0 0.00 0.00 0.00 92 1005.8
20260507025529 15 178 1.6 9.7 0.00 0.00 0.00 92 1005.6
20260507025029 15 119 0.0 9.7 0.00 0.00 0.00 92 1005.7
20260507024601 15 0 0.0 11.3 0.00 0.00 0.00 92 1005.8
20260507024030 15 181 1.6 11.3 0.00 0.00 0.00 92 1005.8
20260507023528 15 175 1.6 9.7 0.00 0.00 0.00 92 1005.9
20260507023044 15 127 0.0 9.7 0.00 0.00 0.00 92 1006.0
20260507022529 15 5 1.6 8.0 0.00 0.00 0.00 92 1005.9
20260507022029 15 126 0.0 8.0 0.00 0.00 0.00 92 1006.0
20260507021552 15 174 1.6 11.3 0.00 0.00 0.00 92 1006.0
20260507021033 15 151 1.6 11.3 0.00 0.00 0.00 91 1006.0
20260507020530 15 152 1.6 9.7 0.00 0.00 0.00 92 1005.9
20260507020054 15 151 1.6 9.7 0.00 0.00 0.00 91 1005.9
20260507015530 15 0 1.6 6.4 0.00 0.00 0.00 91 1005.9
20260507015029 15 0 1.6 6.4 0.00 0.00 0.00 91 1006.0
20260507014552 15 228 1.6 9.7 0.00 0.00 0.00 91 1006.1
20260507014030 15 22 0.0 9.7 0.00 0.00 0.00 91 1006.0
20260507013530 15 207 1.6 6.4 0.00 0.00 0.00 91 1006.1
20260507013043 15 67 1.6 11.3 0.00 0.00 0.00 91 1006.0
20260507012532 15 305 3.2 12.9 0.00 0.00 0.00 91 1006.0
20260507012028 15 154 3.2 12.9 0.00 0.00 0.00 91 1006.2
20260507011549 15 192 1.6 11.3 0.00 0.00 0.00 91 1006.1
20260507011031 15 134 1.6 11.3 0.00 0.00 0.00 91 1006.2
20260507010529 15 153 0.0 11.3 0.00 0.00 0.00 91 1006.2
20260507010046 15 161 1.6 11.3 0.00 0.00 0.00 91 1006.2